User: anonymous   Login
Location: Fort Wayne
(41.1310°N, 85.1290°W)
Time: 05:02:18
(UTC-04:00)
Language:

Gbstr 26 Del rocket - Orbit

View from above orbital plane
View from above orbital plane
View from above satellite
View from above satellite

Ground track
Ground track

The orbit data is extracted from the following two-line orbital elements,

1 25876U 99041E   16120.45399370  .00000203  00000-0  74237-4 0  9993
2 25876  51.7664 148.8399 0532723 262.4696  91.5434 14.03789367856494
Epoch (UTC): 29 April 2016 10:53:45
Eccentricity: 0.0532723
inclination: 51.7664°
perigee height: 494 km
apogee height: 1267 km
right ascension of ascending node: 148.8399°
argument of perigee: 262.4696°
revolutions per day: 14.03789367
mean anomaly at epoch: 91.5434°
orbit number at epoch: 85649

The dashed part of the orbit path shows where the satellite is in the earth's shadow,  

DLR